Hauptseite
METAR-TAF:

METAR-TAF

Flughäfen :

Dewar Lakes, Nunavut, Kanada

Breite: 68-39N, Länge: 071-10W, Höhe: 518 m

Beobachtung

Neuester Wetterbericht von vor 28 Minuten, um 13:00 UTC
Wind 21 kt aus Ost
Temperatur -20°C
Luftfeuchtigkeit 84%
Luftdruck 996 hPa
Geschlossene Wolkendecke in der Höhe von 15000 ft

METAR: CWUW 101300Z AUTO 09021KT ////SM OVC150 M20/M22 A2941

Zeit: 08:28 (13:28 UTC)


TAF: fehlend

Wetterbeobachtungen und Prognosen von mehr als 4000 Flughäfen (METAR und TAF Bericht).

Die verfügbaren Stationen werden durch gelbe und rote Markierungen auf der Karte dargestellt.

Führen Sie die Maus auf sie, um den Namen der Station zu sehen.

Darauf klicken, um die Beobachtung von Wetterbeobachtungen und Prognosen zu sehen.

Um die Karte zu ändern : klicken Sie auf den grünen Tasten mit einem schwarzen Kreuz Zum Vergrößern, auf den grünen Button mit einem Gedankenstrich zu verkleinern, oder auf die grünen Pfeile für benachbarte Karten.


METAR-TAF: